Location: Nelson
(41.2830°S, 173.2830°E)
Time: 07:30:49
(UTC+12:00)

ISS - Pass Details

Date: 19 May 2025
Orbit: 415 x 416 km, 51.6° (Epoch: 16 June)

Event Time Altitude Azimuth Distance (km) Brightness Sun altitude
Exits shadow 06:35:34 15° 269° (W) 1,233 -2.0 -10.7°
Maximum altitude 06:37:57 35° 207° (SSW) 710 -3.0 -10.2°
Drops below altitude 10° 06:41:10 10° 138° (SE) 1,532 -0.6 -9.7°
Sets 06:43:24 0° 129° (SE) 2,403 0.6 -9.3°
